.
WxDataArchive / Data Records for 2014-06-11
2014-06-10 June 2014 2014-06-12

Data Records for Wednesday, 11 June 2014

Time	Temp	Chill	HIndex	Humid	Dewpt	 Wind 	HiWind	WindDir	Rain 	Barom
-----	----	-----	------	-----	-----	------	------	-------	-----	-----
00:00	65.5	65.5	65.5	92	63.1	2	4	90	0.00	29.780 
00:05	65.5	65.5	65.5	92	63.1	2	6	68	0.00	29.780 
00:10	65.5	65.5	65.5	92	63.1	2	5	68	0.00	29.780 
00:15	65.5	65.5	65.5	93	63.4	1	5	68	0.00	29.773 
00:20	65.5	65.5	65.5	93	63.4	2	5	68	0.00	29.773 
00:25	65.5	65.5	65.5	93	63.4	2	5	68	0.00	29.773 
00:30	65.5	65.5	65.5	93	63.4	1	3	90	0.00	29.766 
00:35	65.5	65.5	65.5	93	63.4	1	3	68	0.00	29.766 
00:40	65.5	65.5	65.5	93	63.4	2	4	68	0.00	29.766 
00:45	65.5	65.5	65.5	93	63.4	1	5	68	0.01	29.759 
00:50	65.5	65.5	65.5	93	63.4	2	4	112	0.00	29.759 
00:55	65.5	65.5	65.5	93	63.4	2	4	90	0.00	29.759 
01:00	65.5	65.5	65.5	93	63.4	1	3	90	0.00	29.753 
01:05	65.3	65.3	65.3	94	63.5	2	4	90	0.00	29.753 
01:10	65.3	65.3	65.3	94	63.5	2	4	90	0.00	29.753 
01:15	65.3	65.3	65.3	94	63.5	2	4	90	0.00	29.745 
01:20	65.3	65.3	65.3	94	63.5	2	4	90	0.00	29.745 
01:25	65.3	65.3	65.3	94	63.5	2	4	90	0.00	29.745 
01:30	65.2	65.2	65.2	94	63.4	1	4	90	0.00	29.739 
01:35	65.2	65.2	65.2	94	63.4	1	4	90	0.00	29.739 
01:40	65.2	65.2	65.2	94	63.4	1	3	90	0.00	29.739 
01:45	65.3	65.3	65.3	94	63.5	1	2	90	0.00	29.740 
01:50	65.3	65.3	65.3	94	63.5	1	4	90	0.00	29.740 
01:55	65.3	65.3	65.3	94	63.5	1	4	90	0.00	29.740 
02:00	65.3	65.3	65.3	94	63.5	2	5	90	0.00	29.734 
02:05	65.3	65.3	65.3	94	63.5	1	3	90	0.00	29.734 
02:10	65.3	65.3	65.3	94	63.5	1	4	90	0.00	29.734 
02:15	65.3	65.3	65.3	94	63.5	1	3	90	0.00	29.731 
02:20	65.3	65.3	65.3	94	63.5	1	2	90	0.00	29.731 
02:25	65.3	65.3	65.3	94	63.5	1	4	90	0.00	29.731 
02:30	65.3	65.3	65.3	94	63.5	1	4	90	0.00	29.731 
02:35	65.3	65.3	65.3	94	63.5	1	3	90	0.00	29.731 
02:40	65.3	65.3	65.3	94	63.5	0	2	90	0.00	29.731 
02:45	65.3	65.3	65.3	94	63.5	1	6	90	0.00	29.728 
02:50	65.3	65.3	65.3	94	63.5	0	1	68	0.00	29.728 
02:55	65.3	65.3	65.3	94	63.5	0	2	68	0.00	29.728 
03:00	65.3	65.3	65.3	94	63.5	0	2	68	0.00	29.721 
03:05	65.3	65.3	65.3	94	63.5	0	2	68	0.00	29.721 
03:10	65.3	65.3	65.3	94	63.5	0	1	68	0.00	29.721 
03:15	65.3	65.3	65.3	94	63.5	0	2	68	0.00	29.719 
03:20	65.3	65.3	65.3	94	63.5	0	2	68	0.00	29.719 
03:25	65.3	65.3	65.3	94	63.5	0	2	68	0.00	29.719 
03:30	65.5	65.5	65.5	94	63.7	1	3	68	0.00	29.717 
03:35	65.5	65.5	65.5	94	63.7	1	4	90	0.00	29.717 
03:40	65.5	65.5	65.5	94	63.7	0	3	68	0.00	29.717 
03:45	65.5	65.5	65.5	94	63.7	0	3	68	0.00	29.708 
03:50	65.5	65.5	65.5	94	63.7	0	3	68	0.00	29.708 
03:55	65.6	65.6	65.6	94	63.8	0	1	68	0.00	29.708 
04:00	65.6	65.6	65.6	94	63.8	1	3	68	0.00	29.705 
04:05	65.6	65.6	65.6	94	63.8	0	2	68	0.00	29.705 
04:10	65.6	65.6	65.6	94	63.8	0	1	68	0.00	29.705 
04:15	65.6	65.6	65.6	94	63.8	0	1	68	0.00	29.705 
04:20	65.6	65.6	65.6	94	63.8	0	2	90	0.00	29.705 
04:25	65.6	65.6	65.6	94	63.8	0	1	90	0.00	29.705 
04:30	65.5	65.5	65.5	94	63.7	0	1	90	0.00	29.708 
04:35	65.5	65.5	65.5	94	63.7	0	0	---	0.00	29.708 
04:40	65.5	65.5	65.5	94	63.7	0	1	90	0.00	29.708 
04:45	65.3	65.3	65.3	94	63.5	0	0	---	0.00	29.704 
04:50	65.3	65.3	65.3	94	63.5	0	1	90	0.00	29.704 
04:55	65.2	65.2	65.2	94	63.4	0	3	90	0.00	29.704 
05:00	65.2	65.2	65.2	94	63.4	0	1	90	0.00	29.706 
05:05	65.2	65.2	65.2	94	63.4	0	2	90	0.00	29.706 
05:10	65.3	65.3	65.3	94	63.5	0	0	---	0.00	29.706 
05:15	65.3	65.3	65.3	94	63.5	0	1	90	0.00	29.705 
05:20	65.3	65.3	65.3	94	63.5	0	1	90	0.00	29.705 
05:25	65.5	65.5	65.5	94	63.7	0	1	90	0.00	29.705 
05:30	65.5	65.5	65.5	94	63.7	0	0	---	0.00	29.701 
05:35	65.5	65.5	65.5	94	63.7	0	1	90	0.00	29.701 
05:40	65.3	65.3	65.3	94	63.5	0	1	90	0.00	29.701 
05:45	65.2	65.2	65.2	94	63.4	0	1	90	0.00	29.702 
05:50	65.2	65.2	65.2	94	63.4	0	2	90	0.00	29.702 
05:55	65.3	65.3	65.3	94	63.5	0	2	90	0.00	29.702 
06:00	65.3	65.3	65.3	94	63.5	0	1	90	0.00	29.704 
06:05	65.2	65.2	65.2	94	63.4	0	1	90	0.00	29.704 
06:10	65.2	65.2	65.2	94	63.4	0	0	---	0.00	29.704 
06:15	65.0	65.0	65.0	94	63.2	0	0	---	0.00	29.709 
06:20	65.0	65.0	65.0	94	63.2	0	0	---	0.00	29.709 
06:25	65.0	65.0	65.0	94	63.2	0	1	90	0.00	29.709 
06:30	65.0	65.0	65.0	94	63.2	0	0	---	0.00	29.711 
06:35	64.8	64.8	64.8	94	63.0	0	0	---	0.00	29.711 
06:40	64.8	64.8	64.8	94	63.0	0	0	---	0.00	29.711 
06:45	64.8	64.8	64.8	95	63.3	0	0	---	0.00	29.714 
06:50	65.0	65.0	65.0	95	63.5	0	1	90	0.00	29.714 
06:55	65.0	65.0	65.0	95	63.5	0	0	---	0.00	29.714 
07:00	65.2	65.2	65.2	95	63.7	0	0	---	0.00	29.718 
07:05	65.3	65.3	65.3	95	63.8	0	1	90	0.00	29.718 
07:10	65.3	65.3	65.3	95	63.8	0	1	90	0.00	29.718 
07:15	65.5	65.5	65.5	95	64.0	0	1	90	0.00	29.719 
07:20	65.5	65.5	65.5	94	63.7	0	3	90	0.00	29.719 
07:25	65.6	65.6	65.6	95	64.1	1	3	90	0.00	29.719 
07:30	65.8	65.8	65.8	94	64.0	1	3	90	0.00	29.719 
07:35	66.0	66.0	66.0	94	64.2	0	1	135	0.00	29.719 
07:40	66.3	66.3	66.3	94	64.5	0	1	135	0.00	29.719 
07:45	66.4	66.4	66.4	94	64.6	0	2	135	0.00	29.718 
07:50	66.6	66.6	66.6	94	64.8	0	3	112	0.00	29.718 
07:55	66.8	66.8	66.8	93	64.7	0	2	112	0.00	29.718 
08:00	66.9	66.9	66.9	93	64.8	0	1	68	0.00	29.720 
08:05	66.9	66.9	66.9	92	64.5	0	2	68	0.00	29.720 
08:10	67.1	67.1	67.1	92	64.7	0	2	68	0.00	29.720 
08:15	67.1	67.1	67.1	92	64.7	0	0	---	0.00	29.728 
08:20	67.3	67.3	67.3	92	64.9	0	1	68	0.00	29.728 
08:25	67.3	67.3	67.3	92	64.9	0	2	68	0.00	29.728 
08:30	67.3	67.3	67.3	92	64.9	0	2	68	0.00	29.729 
08:35	67.4	67.4	67.4	91	64.7	0	3	68	0.00	29.729 
08:40	67.6	67.6	67.6	91	64.9	0	2	68	0.00	29.729 
08:45	67.8	67.8	67.8	90	64.8	0	3	68	0.00	29.734 
08:50	67.9	67.9	67.9	90	64.9	0	1	68	0.00	29.734 
08:55	67.9	67.9	67.9	90	64.9	0	3	68	0.00	29.734 
09:00	67.9	67.9	67.9	89	64.5	0	2	68	0.00	29.736 
09:05	68.3	68.3	68.3	89	64.9	0	2	68	0.00	29.736 
09:10	68.4	68.4	68.4	89	65.0	0	3	68	0.00	29.736 
09:15	68.6	68.6	68.6	88	64.9	0	2	68	0.00	29.735 
09:20	68.9	68.9	68.9	88	65.2	0	1	68	0.00	29.735 
09:25	69.3	69.3	69.3	88	65.6	0	1	68	0.00	29.735 
09:30	69.3	69.3	69.3	87	65.3	0	1	68	0.00	29.735 
09:35	69.3	69.3	69.3	87	65.3	0	0	---	0.00	29.735 
09:40	69.3	69.3	69.3	87	65.3	0	3	68	0.00	29.735 
09:45	69.3	69.3	69.3	87	65.3	0	1	68	0.00	29.734 
09:50	69.3	69.3	69.3	88	65.6	0	0	---	0.00	29.734 
09:55	69.4	69.4	69.4	88	65.7	0	3	68	0.01	29.734 
10:00	69.3	69.3	69.3	88	65.6	0	2	68	0.00	29.733 
10:05	69.4	69.4	69.4	88	65.7	0	1	68	0.00	29.733 
10:10	69.3	69.3	69.3	88	65.6	0	1	68	0.00	29.733 
10:15	69.1	69.1	69.1	88	65.4	0	2	68	0.01	29.736 
10:20	68.9	68.9	68.9	88	65.2	0	3	0	0.00	29.736 
10:25	68.6	68.6	68.6	88	64.9	0	3	270	0.00	29.736 
10:30	68.8	68.8	68.8	89	65.4	0	2	270	0.00	29.737 
10:35	69.1	69.1	69.1	89	65.7	0	1	270	0.00	29.737 
10:40	69.6	69.6	69.6	89	66.2	0	1	270	0.00	29.737 
10:45	70.3	70.3	70.3	89	66.9	0	1	270	0.00	29.734 
10:50	70.4	70.4	70.4	88	66.7	0	2	270	0.00	29.734 
10:55	70.6	70.6	70.6	87	66.5	0	3	270	0.00	29.734 
11:00	70.8	70.8	70.8	87	66.7	0	2	270	0.00	29.731 
11:05	70.6	70.6	70.6	85	65.9	0	4	270	0.00	29.731 
11:10	70.8	70.8	70.8	85	66.1	0	1	270	0.00	29.731 
11:15	71.1	71.1	71.1	86	66.7	0	1	248	0.00	29.727 
11:20	71.5	71.5	71.5	84	66.4	0	3	248	0.00	29.727 
11:25	71.6	71.6	71.6	82	65.8	0	3	68	0.00	29.727 
11:30	72.1	72.1	72.1	82	66.3	0	2	68	0.00	29.725 
11:35	72.3	72.3	72.3	81	66.1	1	3	68	0.00	29.725 
11:40	72.7	72.7	72.7	80	66.2	0	3	68	0.00	29.725 
11:45	72.8	72.8	72.8	79	65.9	0	5	0	0.00	29.722 
11:50	73.0	73.0	73.0	80	66.5	1	5	68	0.00	29.722 
11:55	73.0	73.0	73.0	78	65.7	1	4	68	0.00	29.722 
12:00	73.0	73.0	73.0	77	65.3	1	5	68	0.00	29.721 
12:05	73.0	73.0	73.0	76	65.0	1	4	68	0.00	29.721 
12:10	73.2	73.2	73.2	74	64.4	1	4	68	0.00	29.721 
12:15	73.0	73.0	73.0	74	64.2	1	4	90	0.00	29.720 
12:20	72.7	72.7	72.7	76	64.7	0	2	0	0.00	29.720 
12:25	72.3	72.3	72.3	78	65.0	1	4	22	0.00	29.720 
12:30	71.5	71.5	71.5	79	64.6	1	6	90	0.00	29.725 
12:35	70.8	70.8	70.8	80	64.3	1	5	90	0.00	29.725 
12:40	70.1	70.1	70.1	82	64.3	0	2	90	0.01	29.725 
12:45	69.6	69.6	69.6	84	64.5	0	2	90	0.03	29.733 
12:50	69.1	69.1	69.1	85	64.4	0	3	90	0.03	29.733 
12:55	68.9	68.9	68.9	87	64.9	0	1	90	0.00	29.733 
13:00	69.1	69.1	69.1	89	65.7	0	1	90	0.00	29.727 
13:05	69.3	69.3	69.3	89	65.9	0	1	90	0.00	29.727 
13:10	69.6	69.6	69.6	90	66.5	0	1	90	0.00	29.727 
13:15	69.8	69.8	69.8	90	66.7	0	2	90	0.00	29.727 
13:20	69.6	69.6	69.6	90	66.5	0	2	90	0.00	29.727 
13:25	69.3	69.3	69.3	89	65.9	0	4	90	0.00	29.727 
13:30	69.1	69.1	69.1	89	65.7	0	2	90	0.00	29.723 
13:35	68.9	68.9	68.9	89	65.5	0	1	90	0.00	29.723 
13:40	68.9	68.9	68.9	89	65.5	0	2	90	0.00	29.723 
13:45	68.9	68.9	68.9	89	65.5	1	3	90	0.00	29.723 
13:50	68.8	68.8	68.8	89	65.4	1	3	90	0.01	29.723 
13:55	68.3	68.3	68.3	89	64.9	0	2	90	0.03	29.723 
14:00	68.1	68.1	68.1	89	64.7	0	2	90	0.00	29.715 
14:05	68.4	68.4	68.4	90	65.3	1	3	90	0.00	29.715 
14:10	68.9	68.9	68.9	91	66.2	0	3	90	0.00	29.715 
14:15	69.4	69.4	69.4	91	66.7	0	4	90	0.00	29.709 
14:20	69.6	69.6	69.6	90	66.5	0	2	90	0.00	29.709 
14:25	69.6	69.6	69.6	90	66.5	1	5	90	0.00	29.709 
14:30	69.6	69.6	69.6	90	66.5	0	4	90	0.00	29.706 
14:35	69.6	69.6	69.6	89	66.2	0	2	90	0.00	29.706 
14:40	69.8	69.8	69.8	88	66.1	0	2	90	0.00	29.706 
14:45	69.9	69.9	69.9	88	66.2	0	1	90	0.00	29.707 
14:50	70.3	70.3	70.3	88	66.6	0	2	90	0.00	29.707 
14:55	70.4	70.4	70.4	87	66.3	1	3	90	0.00	29.707 
15:00	70.4	70.4	70.4	86	66.0	1	4	90	0.00	29.707 
15:05	70.8	70.8	70.8	87	66.7	0	1	90	0.00	29.707 
15:10	70.9	70.9	70.9	86	66.5	0	2	90	0.00	29.707 
15:15	71.3	71.3	71.3	85	66.5	0	1	90	0.00	29.704 
15:20	71.5	71.5	71.5	85	66.7	0	1	90	0.00	29.704 
15:25	71.6	71.6	71.6	84	66.5	0	2	90	0.00	29.704 
15:30	71.6	71.6	71.6	83	66.2	0	2	90	0.00	29.703 
15:35	71.3	71.3	71.3	83	65.9	0	3	90	0.00	29.703 
15:40	71.1	71.1	71.1	83	65.7	0	3	90	0.00	29.703 
15:45	71.1	71.1	71.1	83	65.7	0	2	90	0.00	29.703 
15:50	71.1	71.1	71.1	83	65.7	0	2	90	0.00	29.703 
15:55	71.1	71.1	71.1	83	65.7	0	2	90	0.00	29.703 
16:00	71.1	71.1	71.1	83	65.7	0	3	90	0.00	29.700 
16:05	71.5	71.5	71.5	84	66.4	0	3	90	0.00	29.700 
16:10	71.5	71.5	71.5	83	66.1	0	1	90	0.00	29.700 
16:15	71.3	71.3	71.3	83	65.9	0	5	292	0.00	29.692 
16:20	71.3	71.3	71.3	83	65.9	0	3	22	0.00	29.692 
16:25	71.3	71.3	71.3	83	65.9	1	4	270	0.00	29.692 
16:30	71.6	71.6	71.6	84	66.5	1	3	0	0.00	29.684 
16:35	71.6	71.6	71.6	83	66.2	1	3	22	0.00	29.684 
16:40	71.6	71.6	71.6	83	66.2	0	3	45	0.00	29.684 
16:45	71.6	71.6	71.6	83	66.2	0	1	45	0.00	29.678 
16:50	71.6	71.6	71.6	82	65.8	0	4	45	0.00	29.678 
16:55	71.8	71.8	71.8	82	66.0	0	1	45	0.00	29.678 
17:00	71.8	71.8	71.8	81	65.6	0	3	270	0.00	29.679 
17:05	72.3	72.3	72.3	81	66.1	0	1	270	0.00	29.679 
17:10	72.8	72.8	72.8	80	66.3	0	1	22	0.00	29.679 
17:15	73.2	73.2	73.2	79	66.3	0	2	0	0.00	29.672 
17:20	73.3	73.3	73.3	77	65.6	0	2	315	0.00	29.672 
17:25	73.7	73.7	73.7	77	66.0	0	2	0	0.00	29.672 
17:30	74.4	74.4	74.4	76	66.3	1	4	0	0.00	29.673 
17:35	75.3	75.3	76.6	74	66.4	0	3	90	0.00	29.673 
17:40	75.8	75.8	77.3	72	66.1	1	4	90	0.00	29.673 
17:45	75.6	75.6	77.1	72	65.9	1	4	135	0.00	29.675 
17:50	75.3	75.3	76.8	72	65.6	1	5	112	0.00	29.675 
17:55	74.9	74.9	74.9	73	65.6	1	4	68	0.00	29.675 
18:00	74.6	74.6	74.6	73	65.4	0	2	90	0.00	29.672 
18:05	74.4	74.4	74.4	74	65.6	0	2	90	0.00	29.672 
18:10	74.2	74.2	74.2	75	65.8	0	4	90	0.00	29.672 
18:15	74.2	74.2	74.2	75	65.8	0	1	90	0.00	29.675 
18:20	74.0	74.0	74.0	76	65.9	1	3	90	0.00	29.675 
18:25	73.9	73.9	73.9	76	65.8	0	3	90	0.00	29.675 
18:30	73.9	73.9	73.9	77	66.2	0	2	90	0.00	29.672 
18:35	73.7	73.7	73.7	77	66.0	0	3	90	0.00	29.672 
18:40	73.7	73.7	73.7	77	66.0	1	5	90	0.00	29.672 
18:45	73.5	73.5	73.5	77	65.8	0	2	90	0.00	29.670 
18:50	73.3	73.3	73.3	78	66.0	0	2	90	0.00	29.670 
18:55	73.2	73.2	73.2	78	65.9	1	4	90	0.00	29.670 
19:00	73.2	73.2	73.2	78	65.9	0	2	90	0.00	29.669 
19:05	73.0	73.0	73.0	79	66.1	0	2	90	0.00	29.669 
19:10	73.2	73.2	73.2	78	65.9	1	3	90	0.00	29.669 
19:15	73.2	73.2	73.2	79	66.3	0	1	90	0.00	29.660 
19:20	73.2	73.2	73.2	78	65.9	0	2	90	0.00	29.660 
19:25	73.2	73.2	73.2	79	66.3	0	1	90	0.00	29.660 
19:30	73.0	73.0	73.0	79	66.1	0	3	90	0.00	29.657 
19:35	73.0	73.0	73.0	79	66.1	0	2	90	0.00	29.657 
19:40	73.0	73.0	73.0	80	66.5	0	1	90	0.00	29.657 
19:45	72.8	72.8	72.8	79	65.9	0	3	90	0.00	29.657 
19:50	72.8	72.8	72.8	80	66.3	0	0	---	0.00	29.657 
19:55	72.8	72.8	72.8	80	66.3	0	1	90	0.00	29.657 
20:00	72.7	72.7	72.7	79	65.8	0	2	90	0.00	29.664 
20:05	72.5	72.5	72.5	79	65.6	0	2	90	0.00	29.664 
20:10	72.5	72.5	72.5	79	65.6	0	2	90	0.00	29.664 
20:15	72.3	72.3	72.3	78	65.0	0	2	90	0.00	29.667 
20:20	72.1	72.1	72.1	79	65.2	0	1	90	0.00	29.667 
20:25	72.1	72.1	72.1	78	64.8	0	2	90	0.00	29.667 
20:30	72.0	72.0	72.0	79	65.1	0	3	90	0.00	29.661 
20:35	71.8	71.8	71.8	79	64.9	0	1	90	0.00	29.661 
20:40	71.6	71.6	71.6	79	64.7	0	1	90	0.00	29.661 
20:45	71.6	71.6	71.6	80	65.1	0	0	---	0.00	29.670 
20:50	71.5	71.5	71.5	80	65.0	0	1	90	0.00	29.670 
20:55	71.3	71.3	71.3	81	65.2	0	0	---	0.00	29.670 
21:00	71.1	71.1	71.1	81	65.0	0	0	---	0.00	29.672 
21:05	71.1	71.1	71.1	81	65.0	0	0	---	0.00	29.672 
21:10	70.9	70.9	70.9	82	65.1	0	1	90	0.00	29.672 
21:15	70.8	70.8	70.8	82	65.0	0	0	---	0.00	29.666 
21:20	70.8	70.8	70.8	82	65.0	0	1	90	0.00	29.666 
21:25	70.8	70.8	70.8	83	65.4	0	1	90	0.00	29.666 
21:30	70.6	70.6	70.6	83	65.2	0	2	90	0.00	29.670 
21:35	70.6	70.6	70.6	84	65.5	0	2	90	0.00	29.670 
21:40	70.4	70.4	70.4	84	65.3	0	1	90	0.00	29.670 
21:45	70.3	70.3	70.3	84	65.2	0	0	---	0.00	29.682 
21:50	70.1	70.1	70.1	84	65.0	0	1	90	0.00	29.682 
21:55	69.9	69.9	69.9	85	65.2	0	0	---	0.00	29.682 
22:00	69.9	69.9	69.9	85	65.2	0	0	---	0.00	29.685 
22:05	69.8	69.8	69.8	85	65.1	0	0	---	0.00	29.685 
22:10	69.8	69.8	69.8	86	65.4	0	0	---	0.00	29.685 
22:15	69.6	69.6	69.6	86	65.2	0	1	90	0.00	29.688 
22:20	69.6	69.6	69.6	87	65.6	0	0	---	0.00	29.688 
22:25	69.6	69.6	69.6	87	65.6	0	0	---	0.00	29.688 
22:30	69.4	69.4	69.4	87	65.4	0	0	---	0.00	29.690 
22:35	69.4	69.4	69.4	88	65.7	0	1	90	0.00	29.690 
22:40	69.4	69.4	69.4	88	65.7	0	1	90	0.00	29.690 
22:45	69.4	69.4	69.4	88	65.7	0	0	---	0.00	29.693 
22:50	69.4	69.4	69.4	88	65.7	0	0	---	0.00	29.693 
22:55	69.4	69.4	69.4	89	66.0	0	0	---	0.00	29.693 
23:00	69.4	69.4	69.4	89	66.0	0	0	---	0.00	29.693 
23:05	69.3	69.3	69.3	89	65.9	0	0	---	0.00	29.693 
23:10	69.3	69.3	69.3	89	65.9	0	0	---	0.00	29.693 
23:15	69.3	69.3	69.3	89	65.9	0	0	---	0.00	29.686 
23:20	69.1	69.1	69.1	89	65.7	0	1	90	0.00	29.686 
23:25	69.1	69.1	69.1	89	65.7	0	0	---	0.00	29.686 
23:30	68.9	68.9	68.9	89	65.5	0	2	90	0.00	29.690 
23:35	68.6	68.6	68.6	89	65.2	0	1	90	0.00	29.690 
23:40	68.3	68.3	68.3	88	64.6	0	1	90	0.00	29.690 
23:45	68.3	68.3	68.3	88	64.6	0	0	---	0.01	29.694 
23:50	68.1	68.1	68.1	88	64.4	0	1	90	0.00	29.694 
23:55	67.8	67.8	67.8	88	64.1	0	1	90	0.01	29.694 

CoCoRaHS
IN-AL-39
A2 Web Hosting
Creative Commons License
GoDaddy
search engine by freefind advanced

loaded 2018-11-15 05:39:48 • last modified 2010-11-18 10:43:29
Privacy PolicyDisclaimer
• wx.awcolley.com is powered by PmWiki v.2002016 •
• all content (unless otherwise noted) © 2018 A W Colley